This demonstration page uses our WeatherBlox Daily Observations layout. Learn more.

41.55636, -103.73856

Hourly Observations for May 16, 2019

Temp ( °F °C ) Dew Point ( °F °C ) Humidity (%) Winds ( mph kmh ) Pressure ( in mb ) Visibility ( mi km ) Precip ( " mm )
12:58 am 00:58 undefined 71 21.7 44 6.4 37 37 ESE 8 13 29.77 1008 10 16.0934 0 0
1:58 am 01:58 undefined 67 19.7 42 5.3 39 39 S 7 11 29.77 1008 10 16.0934 0 0
2:58 am 02:58 undefined 62 16.5 43 6.2 51 51 S 8 13 29.77 1008 10 16.0934 0 0
3:58 am 03:58 undefined 59 14.8 44 6.5 58 58 SW 10 17 29.78 1008 10 16.0934 0 0
4:58 am 04:58 undefined 65 18.3 41 4.9 41 41 S 8 13 29.75 1007 10 16.0934 0 0
5:58 am 05:58 undefined 59 15.2 43 6.2 55 55 S 9 15 29.77 1008 10 16.0934 0 0
6:58 am 06:58 undefined 59 14.8 42 5.4 54 54 SW 14 22 29.75 1007 10 16.0934 0 0
7:58 am 07:58 undefined 58 14.2 41 4.8 53 53 SSW 12 19 29.73 1007 10 16.0934 0 0
8:58 am 08:58 undefined 56 13.3 41 4.9 57 57 SW 14 22 29.73 1007 10 16.0934 0 0
9:58 am 09:58 undefined 55 12.5 40 4.4 58 58 WSW 12 19 29.73 1007 10 16.0934 0 0
10:58 am 10:58 undefined 56 13.4 38 3.4 51 51 W 13 20 29.73 1007 10 16.0934 0 0
11:58 am 11:58 undefined 56 13.3 39 4 54 54 NNW 7 11 29.75 1008 10 16.0934 0 0
12:58 pm 12:58 undefined 58 14.4 44 6.6 60 60 WNW 8 13 29.75 1008 10 16.0934 0 0
1:58 pm 13:58 undefined 66 19.1 44 6.5 44 44 WNW 6 9 29.75 1008 10 16.0934 0 0
2:58 pm 14:58 undefined 70 21.3 41 5 35 35 NNW 5 7 29.75 1008 10 16.0934 0 0
3:58 pm 15:58 undefined 68 20.1 46 7.6 45 45 NW 6 9 29.76 1008 10 16.0934 0 0
5:56 pm 17:56 undefined 73 23 46 7.6 37 37 NNE 5 7 29.72 1007 10 16.0934 0 0
6:56 pm 18:56 undefined 75 23.8 46 7.8 36 36 NE 14 22 29.69 1006 10 16.0934 0 0
7:56 pm 19:56 Partly Cloudy with Light Showers 73 22.5 48 9 42 42 E 13 20 29.68 1005 10 16.0934 0 0
8:56 pm 20:56 undefined 74 23.3 49 9.4 41 41 E 18 30 29.67 1005 10 16.0934 0 0
9:56 pm 21:56 undefined 76 24.5 46 7.9 35 35 ESE 16 26 29.65 1004 10 16.0934 0 0
10:56 pm 22:56 undefined 74 23.5 41 5.2 31 31 ESE 13 20 29.63 1003 10 16.0934 0 0
11:56 pm 23:56 undefined 75 24.1 40 4.6 28 28 ESE 18 30 29.61 1003 10 16.0934 0 0

Powered by AerisWeather